Погода в Бассано-дель-Граппа

Италия     45°46′08″N   11°44′38″E
темп.,
°C
ветер,
м/с
пор.,
м/с
влажн.,
%
обл.,
%
осадки,
мм/ч
давл.,
гПа
погр.,
м
17 июня, чт
чт1723:00+20с22775 0.1 101718
02:00+19с22785 0.1 101717
05:00+19с22815 0.0 101616
08:00+22ююз11715 0.0 1017191
11:00+25ю21640 0.0 1017730
14:00+27ююв22557 0.2 10161272
17:00+28ююв225410 0.4 10151378
20:00+23всв2279100 0.5 101658
18 июня, пт
пт1823:00+21с217820 0.1 101713
02:00+20с227880 0.1 101716
05:00+19с118114 0.0 101712
08:00+22юв107411 0.0 1017220
11:00+25ююв21615 0.0 1017800
14:00+27ю225657 0.1 10161226
17:00+27юв335835 0.1 10151225
20:00+23в11763 0.1 101520
19 июня, сб
сб1923:00+20с11845 0.0 101615
02:00+19ссз11844 0.0 101613
05:00+19с21815 0.0 101616
08:00+22ююв107136 0.0 1016200
11:00+26ююв216514 0.0 1015665
14:00+28ююв215811 0.0 1014914
17:00+29ю2155100 0.1 1013784
20:00+26ссв227221 0.1 101315
20 июня, вс
вс2023:00+22ссз22775 0.0 101418
02:00+21с22735 0.0 101419
05:00+21ссз227047 0.0 101318
08:00+24всв116413 0.0 1012116
11:00+27юв2163100 0.0 1011552
14:00+29ююз2356100 0.0 1010971
17:00+31ююз35520 0.1 10081301
20:00+26ююз016691 0.1 100811
21 июня, пн
пн2123:00+22с32835 0.0 100938
02:00+21с22769 0.0 100828
05:00+20с227346 0.0 100816
08:00+23юв10715 0.0 1009215
11:00+26ююв22688 0.0 1009835
14:00+29ююв23524 0.0 10081319
17:00+30ю565148 0.0 10071549
20:00+25юв22750 0.4 100734